EW9945 Weather Reports


Display with metric or nautical units.
time (UTC)temp
F
wind
direction
speed
MPH
gust
MPH
rain 1hr
in
rain 24hr
in
rain mn
in
humidity
%
barometer
mb
20260506131507 55 148 0.0 4.0 0.08 0.41 0.22 91 1004.7
20260506130008 55 149 0.0 4.0 0.09 0.40 0.21 91 1004.7
20260506124506 55 155 2.0 10.0 0.09 0.39 0.20 91 1004.6
20260506123006 55 138 1.0 9.0 0.07 0.36 0.17 91 1005.0
20260506121505 55 121 0.0 8.0 0.07 0.34 0.15 91 1005.2
20260506120004 55 133 1.0 11.0 0.05 0.31 0.12 90 1005.2
20260506114508 55 102 3.0 11.0 0.05 0.30 0.11 90 1004.7
20260506113001 55 118 2.0 11.0 0.05 0.28 0.10 90 1004.5
20260506111600 55 123 2.0 9.0 0.04 0.28 0.09 90 1004.5
20260506110058 55 115 2.0 10.0 0.04 0.27 0.08 90 1004.5
20260506104604 55 155 0.0 8.0 0.02 0.25 0.06 90 1004.5
20260506103054 55 109 2.0 8.0 0.03 0.25 0.06 90 1004.6
20260506101552 55 84 1.0 5.0 0.05 0.24 0.05 90 1004.8
20260506100105 55 158 1.0 7.0 0.06 0.26 0.04 90 1004.9
20260506094551 55 117 2.0 5.0 0.06 0.26 0.04 90 1004.7
20260506093048 55 57 0.0 3.0 0.06 0.25 0.03 89 1004.8
20260506091552 55 167 0.0 4.0 0.05 0.22 0.00 88 1004.9
20260506090046 55 162 0.0 5.0 0.05 0.21 0.21 88 1005.2
20260506084545 55 267 0.0 2.0 0.05 0.20 0.20 88 1005.2
20260506083047 55 71 0.0 2.0 0.05 0.19 0.19 88 1005.3
20260506081545 55 175 0.0 8.0 0.05 0.18 0.18 90 1005.5
20260506073043 52 158 0.0 0.0 0.01 0.14 0.14 90 1005.7
20260506071547 52 157 0.0 0.0 0.00 0.13 0.13 90 1005.6
20260506061539 53 158 0.0 2.0 0.00 0.13 0.13 89 1005.9
20260506044540 55 158 0.0 0.0 0.00 0.13 0.13 86 1006.9
20260506043031 55 158 0.0 0.0 0.00 0.13 0.13 86 1006.8
20260506041530 56 158 0.0 0.0 0.00 0.13 0.13 85 1006.9
20260506040030 56 158 0.0 0.0 0.00 0.13 0.13 85 1006.7
20260506034530 57 158 0.0 0.0 0.00 0.13 0.13 84 1006.7
20260506033035 57 158 0.0 0.0 0.00 0.13 0.13 83 1006.7
20260506031534 57 158 0.0 2.0 0.00 0.13 0.13 84 1007.1
20260506030054 58 158 2.0 4.0 0.00 0.13 0.13 84 1006.8
20260506024534 58 164 0.0 0.0 0.00 0.13 0.13 85 1007.0
20260506023030 58 165 0.0 0.0 0.00 0.13 0.13 86 1007.0
20260506021531 58 165 0.0 0.0 0.00 0.13 0.13 87 1007.0
20260506020027 58 165 0.0 0.0 0.00 0.13 0.13 87 1006.8
20260506014525 60 165 0.0 0.0 0.00 0.13 0.13 84 1006.6
20260506013024 60 165 0.0 0.0 0.00 0.13 0.13 82 1006.6
20260506011531 61 165 0.0 0.0 0.00 0.13 0.13 81 1006.4
20260506010022 61 165 0.0 0.0 0.00 0.13 0.13 79 1006.1
20260506004540 61 165 0.0 0.0 0.00 0.13 0.13 79 1006.1
20260506003031 63 165 0.0 0.0 0.00 0.13 0.13 77 1006.0
20260506001523 63 165 0.0 0.0 0.00 0.13 0.13 77 1005.8
20260506000024 63 165 0.0 0.0 0.00 0.13 0.13 75 1005.7
20260505234520 63 165 0.0 0.0 0.00 0.13 0.13 76 1005.6
20260505233023 65 165 0.0 0.0 0.00 0.13 0.13 71 1005.7
20260505231526 65 121 0.0 0.0 0.00 0.13 0.13 71 1005.8
20260505230021 65 121 0.0 0.0 0.00 0.13 0.13 73 1005.6
20260505224517 65 121 0.0 0.0 0.00 0.13 0.13 72 1005.6
20260505223017 66 121 0.0 0.0 0.00 0.13 0.13 76 1005.8
20260505221519 67 121 0.0 0.0 0.00 0.13 0.13 74 1005.5
20260505220017 66 121 0.0 0.0 0.00 0.13 0.13 77 1005.3
20260505214517 65 121 0.0 0.0 0.02 0.13 0.13 79 1005.2
20260505213016 63 121 0.0 0.0 0.03 0.13 0.13 83 1005.2
20260505211516 62 121 0.0 0.0 0.03 0.13 0.13 84 1005.0
20260505210016 62 121 0.0 0.0 0.03 0.13 0.13 82 1005.1
20260505204516 65 155 1.0 14.0 0.02 0.12 0.12 70 1005.4
20260505203024 69 121 0.0 12.0 0.00 0.10 0.10 59 1004.6
20260505201515 71 327 1.0 16.0 0.00 0.10 0.10 57 1004.5
20260505200015 72 311 2.0 15.0 0.00 0.10 0.10 50 1004.4
20260505194513 71 342 4.0 8.0 0.00 0.10 0.10 62 1004.7
20260505193014 69 311 0.0 2.0 0.05 0.10 0.10 73 1004.9
20260505191513 65 311 0.0 8.0 0.07 0.10 0.10 79 1005.2
20260505190021 63 309 0.0 5.0 0.07 0.10 0.10 85 1005.3
20260505184517 61 307 3.0 8.0 0.07 0.10 0.10 84 1005.4
20260505183010 64 318 8.0 25.0 0.05 0.08 0.08 72 1005.6
20260505181510 72 123 3.0 11.0 0.00 0.03 0.03 43 1004.3
20260505180009 74 153 4.0 15.0 0.00 0.03 0.03 42 1003.9
20260505174506 74 113 1.0 9.0 0.00 0.03 0.03 43 1004.2
20260505173004 73 201 1.0 14.0 0.00 0.03 0.03 45 1004.4
20260505171505 72 33 0.0 9.0 0.00 0.03 0.03 45 1004.7
20260505170002 71 140 3.0 11.0 0.00 0.03 0.03 48 1005.0
20260505164502 71 132 2.0 14.0 0.00 0.03 0.03 49 1005.0
20260505163002 70 153 1.0 13.0 0.00 0.03 0.03 49 1004.8
20260505161603 71 138 1.0 8.0 0.00 0.03 0.03 48 1004.8
20260505153105 71 301 3.0 14.0 0.00 0.03 0.03 47 1005.5
20260505151558 72 343 3.0 11.0 0.00 0.03 0.03 46 1005.7